GEFSMW_prec_meanprecacc_060.txt.gz
Total_Precipitation_Accumulation
0.16 0.28 0.42 0.54 0.55 0.51 0.46 0.37 0.28 0.30 0.37 0.46 0.59 0.73 0.89 0.95 0.95 1.03 1.15 1.31 1.43 1.50 1.51 1.49 1.42 1.31 1.20 1.11 1.00 0.87 0.78 0.71 0.64 0.58 0.48 0.37 0.31 0.29 0.27 0.24 0.24 0.23 0.20
0.27 0.45 0.61 0.87 0.90 0.80 0.73 0.61 0.55 0.63 0.81 1.04 1.25 1.45 1.60 1.72 1.77 1.81 1.94 2.05 2.14 2.20 2.21 2.14 2.05 1.92 1.65 1.29 1.04 0.90 0.85 0.76 0.69 0.66 0.61 0.45 0.29 0.21 0.17 0.17 0.17 0.18 0.18
0.62 0.75 0.87 0.99 1.08 1.01 0.97 0.88 0.86 1.09 1.44 1.73 2.00 2.23 2.47 2.62 2.63 2.55 2.58 2.63 2.64 2.64 2.64 2.55 2.32 1.96 1.55 1.22 1.05 0.99 0.90 0.80 0.70 0.62 0.61 0.54 0.44 0.28 0.17 0.13 0.11 0.11 0.11
0.67 0.81 0.96 1.14 1.17 1.16 1.18 1.13 1.12 1.34 1.67 2.01 2.45 2.80 3.02 3.20 3.39 3.34 3.19 3.00 2.80 2.70 2.56 2.33 1.93 1.57 1.30 1.12 1.05 0.96 0.83 0.74 0.62 0.52 0.45 0.39 0.35 0.30 0.20 0.13 0.09 0.07 0.06
0.43 0.61 0.77 1.01 1.19 1.24 1.18 1.17 1.28 1.60 2.16 2.69 3.07 3.28 3.48 3.61 3.60 3.42 3.17 2.89 2.59 2.22 1.91 1.64 1.36 1.19 1.02 0.86 0.75 0.66 0.56 0.47 0.39 0.33 0.29 0.24 0.20 0.18 0.16 0.13 0.09 0.08 0.08
0.25 0.33 0.47 0.71 0.96 1.02 1.13 1.27 1.45 1.94 2.54 3.00 3.33 3.53 3.59 3.46 3.27 2.99 2.64 2.39 2.12 1.75 1.42 1.19 1.00 0.86 0.71 0.55 0.41 0.33 0.26 0.23 0.22 0.21 0.18 0.16 0.15 0.15 0.15 0.15 0.11 0.09 0.09
0.21 0.28 0.36 0.52 0.75 0.87 1.12 1.40 1.72 2.11 2.38 2.69 2.93 2.95 2.95 2.87 2.78 2.63 2.43 2.21 1.87 1.47 1.13 0.89 0.76 0.61 0.43 0.30 0.23 0.17 0.14 0.13 0.13 0.13 0.14 0.13 0.14 0.13 0.13 0.13 0.12 0.10 0.10
0.23 0.31 0.44 0.59 0.73 0.83 0.98 1.30 1.61 1.94 2.04 2.11 2.24 2.28 2.29 2.32 2.28 2.13 1.92 1.65 1.35 1.10 0.85 0.64 0.48 0.33 0.23 0.19 0.16 0.14 0.12 0.11 0.10 0.10 0.11 0.10 0.09 0.08 0.08 0.09 0.10 0.12 0.12
0.25 0.34 0.46 0.57 0.65 0.72 0.85 1.01 1.19 1.41 1.59 1.70 1.74 1.73 1.72 1.65 1.58 1.41 1.21 1.04 0.89 0.71 0.50 0.36 0.28 0.23 0.18 0.15 0.13 0.11 0.10 0.09 0.09 0.09 0.09 0.09 0.08 0.08 0.08 0.09 0.10 0.14 0.18
0.27 0.35 0.41 0.45 0.49 0.53 0.65 0.76 0.88 0.97 1.09 1.17 1.17 1.12 1.07 1.02 0.94 0.84 0.74 0.61 0.49 0.40 0.32 0.26 0.22 0.18 0.16 0.14 0.12 0.11 0.10 0.09 0.10 0.10 0.11 0.12 0.12 0.13 0.14 0.15 0.15 0.16 0.18
0.30 0.33 0.35 0.37 0.35 0.35 0.44 0.51 0.57 0.70 0.78 0.78 0.72 0.65 0.62 0.57 0.52 0.48 0.44 0.38 0.32 0.29 0.26 0.25 0.23 0.20 0.17 0.15 0.14 0.14 0.14 0.15 0.16 0.17 0.17 0.17 0.17 0.16 0.14 0.14 0.13 0.12 0.14
0.33 0.31 0.30 0.28 0.26 0.28 0.32 0.36 0.40 0.44 0.45 0.43 0.40 0.37 0.36 0.35 0.35 0.33 0.32 0.30 0.29 0.28 0.26 0.24 0.22 0.21 0.20 0.19 0.19 0.19 0.19 0.19 0.19 0.18 0.18 0.17 0.16 0.17 0.16 0.15 0.14 0.14 0.15
0.41 0.37 0.34 0.30 0.28 0.29 0.29 0.28 0.28 0.27 0.27 0.27 0.27 0.27 0.28 0.30 0.31 0.32 0.33 0.32 0.30 0.29 0.27 0.25 0.25 0.25 0.24 0.23 0.22 0.21 0.19 0.18 0.16 0.15 0.14 0.12 0.11 0.11 0.11 0.10 0.09 0.08 0.08
0.42 0.44 0.47 0.44 0.37 0.30 0.27 0.26 0.26 0.23 0.21 0.21 0.22 0.22 0.23 0.25 0.26 0.27 0.27 0.27 0.28 0.30 0.31 0.30 0.28 0.26 0.22 0.19 0.16 0.13 0.11 0.09 0.08 0.07 0.06 0.05 0.05 0.07 0.08 0.08 0.08 0.09 0.10
0.50 0.54 0.56 0.49 0.42 0.38 0.34 0.31 0.30 0.27 0.25 0.25 0.26 0.26 0.26 0.26 0.27 0.29 0.30 0.30 0.29 0.26 0.23 0.20 0.16 0.13 0.09 0.07 0.05 0.04 0.03 0.02 0.02 0.02 0.02 0.02 0.03 0.05 0.06 0.06 0.08 0.13 0.16
0.68 0.66 0.63 0.59 0.55 0.51 0.47 0.43 0.40 0.38 0.37 0.38 0.39 0.39 0.38 0.38 0.36 0.33 0.29 0.25 0.21 0.16 0.12 0.09 0.06 0.05 0.03 0.02 0.01 0.01 0.01 0.01 0.02 0.02 0.02 0.02 0.02 0.02 0.02 0.05 0.10 0.16 0.19
0.84 0.80 0.76 0.72 0.68 0.65 0.61 0.57 0.54 0.51 0.49 0.49 0.49 0.48 0.45 0.39 0.31 0.22 0.16 0.13 0.10 0.08 0.06 0.04 0.03 0.03 0.01 0.00 0.00 0.00 0.00 0.02 0.03 0.04 0.04 0.03 0.02 0.03 0.05 0.06 0.07 0.08 0.09
0.86 0.84 0.83 0.82 0.77 0.71 0.66 0.62 0.59 0.55 0.53 0.51 0.48 0.43 0.35 0.27 0.18 0.12 0.09 0.08 0.07 0.06 0.04 0.03 0.03 0.04 0.02 0.00 0.00 0.00 0.00 0.02 0.03 0.04 0.04 0.05 0.05 0.06 0.06 0.04 0.05 0.08 0.13
0.91 0.90 0.88 0.81 0.73 0.66 0.61 0.60 0.59 0.55 0.49 0.43 0.34 0.25 0.17 0.12 0.08 0.07 0.07 0.06 0.05 0.04 0.03 0.03 0.04 0.07 0.05 0.01 0.00 0.00 0.01 0.03 0.03 0.04 0.03 0.04 0.07 0.07 0.07 0.05 0.08 0.13 0.18
0.72 0.68 0.61 0.55 0.52 0.51 0.48 0.45 0.41 0.34 0.28 0.19 0.13 0.10 0.07 0.05 0.05 0.05 0.05 0.04 0.04 0.04 0.04 0.04 0.05 0.07 0.08 0.02 0.00 0.00 0.00 0.02 0.02 0.05 0.08 0.06 0.06 0.05 0.05 0.04 0.11 0.19 0.21
0.50 0.45 0.41 0.40 0.38 0.34 0.30 0.25 0.20 0.16 0.11 0.07 0.05 0.04 0.03 0.02 0.02 0.03 0.03 0.03 0.04 0.06 0.06 0.07 0.07 0.08 0.04 0.01 0.00 0.00 0.00 0.01 0.02 0.08 0.15 0.16 0.08 0.05 0.05 0.06 0.11 0.18 0.16
0.30 0.27 0.25 0.23 0.20 0.17 0.14 0.13 0.10 0.07 0.04 0.03 0.03 0.03 0.02 0.01 0.01 0.03 0.04 0.04 0.06 0.08 0.09 0.09 0.09 0.09 0.07 0.03 0.01 0.00 0.00 0.00 0.03 0.13 0.17 0.17 0.09 0.07 0.09 0.11 0.14 0.16 0.22
0.18 0.16 0.13 0.12 0.13 0.12 0.11 0.10 0.08 0.06 0.05 0.06 0.05 0.03 0.03 0.02 0.02 0.04 0.05 0.06 0.08 0.08 0.06 0.07 0.08 0.09 0.09 0.06 0.00 0.00 0.00 0.01 0.04 0.11 0.10 0.11 0.12 0.15 0.25 0.23 0.21 0.26 0.39
0.11 0.11 0.10 0.11 0.12 0.12 0.12 0.12 0.10 0.09 0.11 0.12 0.08 0.05 0.05 0.05 0.05 0.06 0.05 0.06 0.08 0.06 0.06 0.08 0.08 0.09 0.09 0.05 0.02 0.02 0.04 0.04 0.07 0.10 0.14 0.21 0.27 0.31 0.38 0.42 0.46 0.48 0.47
0.11 0.10 0.12 0.12 0.09 0.08 0.09 0.09 0.10 0.12 0.15 0.14 0.09 0.05 0.04 0.06 0.07 0.09 0.06 0.04 0.05 0.01 0.02 0.04 0.04 0.05 0.05 0.03 0.02 0.01 0.02 0.03 0.04 0.06 0.17 0.32 0.39 0.44 0.48 0.51 0.54 0.57 0.51
0.08 0.08 0.08 0.06 0.05 0.05 0.06 0.06 0.08 0.09 0.10 0.11 0.07 0.04 0.03 0.05 0.06 0.09 0.10 0.04 0.01 0.00 0.00 0.00 0.01 0.02 0.02 0.02 0.02 0.02 0.02 0.04 0.07 0.12 0.26 0.33 0.37 0.41 0.42 0.42 0.45 0.50 0.50

GEFSMW_prec_meanprecacc_066.txt.gz
Total_Precipitation_Accumulation
0.18 0.31 0.47 0.63 0.69 0.71 0.71 0.65 0.58 0.61 0.68 0.77 0.83 0.94 1.06 1.12 1.14 1.21 1.32 1.50 1.64 1.71 1.73 1.74 1.64 1.50 1.38 1.28 1.17 1.01 0.89 0.80 0.72 0.65 0.54 0.42 0.35 0.33 0.32 0.31 0.32 0.33 0.32
0.29 0.48 0.66 0.95 1.03 0.97 0.97 0.98 0.98 1.09 1.27 1.50 1.67 1.81 1.96 2.06 2.09 2.11 2.23 2.34 2.47 2.54 2.54 2.46 2.33 2.18 1.89 1.50 1.22 1.05 0.96 0.86 0.79 0.75 0.68 0.50 0.33 0.24 0.21 0.22 0.25 0.27 0.29
0.65 0.79 0.93 1.06 1.21 1.25 1.29 1.35 1.46 1.72 2.06 2.33 2.57 2.72 2.91 3.04 2.97 2.83 2.87 2.96 3.02 3.03 3.06 2.97 2.70 2.30 1.83 1.44 1.22 1.14 1.04 0.92 0.82 0.74 0.71 0.61 0.48 0.31 0.20 0.16 0.16 0.17 0.18
0.72 0.86 1.01 1.21 1.30 1.38 1.47 1.57 1.77 2.12 2.49 2.80 3.18 3.43 3.52 3.63 3.77 3.67 3.52 3.34 3.15 3.05 2.91 2.70 2.28 1.85 1.52 1.31 1.21 1.10 0.94 0.84 0.70 0.62 0.54 0.48 0.41 0.35 0.24 0.17 0.13 0.11 0.10
0.49 0.67 0.83 1.10 1.30 1.39 1.40 1.48 1.80 2.28 2.87 3.45 3.81 4.00 4.10 4.09 4.02 3.80 3.53 3.23 2.91 2.53 2.21 1.91 1.60 1.40 1.22 1.04 0.89 0.78 0.66 0.56 0.46 0.39 0.35 0.31 0.26 0.24 0.22 0.19 0.14 0.13 0.12
0.31 0.39 0.54 0.79 1.05 1.14 1.33 1.54 1.85 2.45 3.10 3.56 3.88 4.09 4.13 3.93 3.68 3.33 2.92 2.66 2.39 2.02 1.67 1.43 1.21 1.03 0.86 0.67 0.53 0.43 0.37 0.33 0.31 0.27 0.24 0.21 0.20 0.20 0.21 0.22 0.19 0.16 0.16
0.27 0.33 0.42 0.59 0.83 0.98 1.27 1.61 2.00 2.48 2.87 3.26 3.52 3.55 3.52 3.36 3.21 2.99 2.73 2.48 2.12 1.74 1.39 1.14 0.95 0.76 0.57 0.42 0.33 0.26 0.21 0.18 0.17 0.17 0.17 0.16 0.16 0.16 0.17 0.17 0.16 0.15 0.15
0.31 0.37 0.51 0.66 0.80 0.91 1.07 1.41 1.76 2.17 2.36 2.48 2.66 2.72 2.74 2.73 2.62 2.44 2.20 1.93 1.62 1.36 1.09 0.82 0.60 0.42 0.31 0.25 0.21 0.18 0.16 0.13 0.12 0.12 0.12 0.12 0.11 0.10 0.10 0.12 0.14 0.16 0.17
0.30 0.39 0.51 0.63 0.71 0.77 0.92 1.10 1.29 1.53 1.75 1.90 1.94 1.96 1.98 1.89 1.80 1.65 1.43 1.25 1.09 0.88 0.65 0.45 0.33 0.26 0.21 0.17 0.15 0.13 0.11 0.10 0.10 0.10 0.10 0.10 0.09 0.09 0.09 0.10 0.12 0.17 0.22
0.32 0.40 0.45 0.49 0.53 0.57 0.69 0.81 0.95 1.07 1.20 1.27 1.27 1.24 1.21 1.17 1.09 0.99 0.90 0.74 0.58 0.46 0.37 0.30 0.24 0.19 0.17 0.15 0.13 0.12 0.10 0.09 0.10 0.10 0.11 0.12 0.12 0.14 0.15 0.16 0.16 0.17 0.21
0.36 0.37 0.38 0.41 0.38 0.39 0.48 0.56 0.63 0.76 0.84 0.85 0.80 0.72 0.70 0.65 0.60 0.55 0.52 0.44 0.36 0.31 0.28 0.26 0.24 0.20 0.17 0.16 0.15 0.15 0.14 0.15 0.16 0.17 0.17 0.18 0.18 0.18 0.16 0.16 0.15 0.14 0.17
0.38 0.36 0.33 0.31 0.28 0.30 0.34 0.39 0.43 0.48 0.50 0.48 0.45 0.41 0.40 0.39 0.38 0.36 0.34 0.32 0.31 0.29 0.27 0.25 0.23 0.22 0.21 0.20 0.19 0.19 0.19 0.19 0.19 0.19 0.18 0.18 0.17 0.18 0.17 0.17 0.16 0.16 0.17
0.47 0.42 0.38 0.33 0.31 0.31 0.31 0.30 0.30 0.29 0.30 0.30 0.30 0.30 0.30 0.31 0.32 0.33 0.34 0.33 0.32 0.30 0.28 0.26 0.26 0.25 0.24 0.23 0.22 0.21 0.20 0.18 0.16 0.15 0.14 0.13 0.12 0.12 0.11 0.10 0.09 0.09 0.09
0.50 0.50 0.52 0.48 0.40 0.32 0.29 0.27 0.27 0.25 0.23 0.23 0.23 0.23 0.24 0.25 0.27 0.28 0.28 0.28 0.29 0.30 0.31 0.30 0.28 0.26 0.23 0.19 0.16 0.13 0.11 0.09 0.08 0.07 0.06 0.05 0.05 0.07 0.08 0.08 0.08 0.09 0.11
0.59 0.62 0.62 0.55 0.46 0.41 0.36 0.33 0.32 0.29 0.27 0.26 0.27 0.27 0.27 0.27 0.28 0.30 0.31 0.31 0.29 0.27 0.23 0.20 0.16 0.13 0.09 0.07 0.05 0.04 0.03 0.03 0.02 0.02 0.02 0.02 0.03 0.05 0.06 0.06 0.08 0.13 0.16
0.80 0.76 0.70 0.64 0.59 0.54 0.49 0.45 0.42 0.39 0.38 0.39 0.40 0.40 0.39 0.38 0.36 0.33 0.29 0.25 0.21 0.16 0.12 0.09 0.06 0.05 0.03 0.02 0.01 0.01 0.01 0.01 0.02 0.02 0.02 0.02 0.02 0.02 0.02 0.05 0.10 0.16 0.19
0.94 0.90 0.87 0.80 0.73 0.68 0.62 0.58 0.55 0.51 0.49 0.49 0.50 0.49 0.45 0.39 0.31 0.22 0.16 0.13 0.10 0.08 0.06 0.04 0.03 0.03 0.01 0.00 0.00 0.00 0.00 0.02 0.03 0.04 0.04 0.03 0.02 0.03 0.05 0.06 0.07 0.08 0.09
0.93 0.91 0.89 0.88 0.82 0.75 0.68 0.63 0.59 0.56 0.53 0.51 0.49 0.43 0.35 0.27 0.18 0.12 0.09 0.08 0.07 0.06 0.04 0.03 0.03 0.04 0.02 0.00 0.00 0.00 0.00 0.02 0.03 0.04 0.04 0.05 0.05 0.06 0.06 0.04 0.05 0.08 0.13
1.00 0.97 0.91 0.82 0.75 0.68 0.63 0.61 0.60 0.56 0.49 0.43 0.34 0.25 0.17 0.12 0.08 0.07 0.07 0.06 0.05 0.04 0.03 0.03 0.04 0.07 0.05 0.01 0.00 0.00 0.01 0.03 0.03 0.04 0.03 0.04 0.07 0.07 0.07 0.05 0.08 0.13 0.18
0.83 0.76 0.66 0.57 0.53 0.52 0.49 0.45 0.41 0.35 0.28 0.20 0.13 0.10 0.07 0.05 0.05 0.05 0.05 0.04 0.04 0.04 0.04 0.04 0.05 0.07 0.08 0.02 0.00 0.00 0.01 0.02 0.02 0.05 0.08 0.06 0.06 0.05 0.05 0.04 0.11 0.19 0.21
0.58 0.52 0.46 0.43 0.40 0.36 0.31 0.26 0.21 0.16 0.11 0.07 0.05 0.04 0.03 0.02 0.02 0.03 0.03 0.03 0.04 0.06 0.06 0.07 0.07 0.08 0.04 0.01 0.00 0.00 0.00 0.01 0.02 0.08 0.15 0.16 0.08 0.05 0.05 0.06 0.11 0.18 0.16
0.35 0.32 0.30 0.27 0.23 0.19 0.15 0.14 0.11 0.07 0.04 0.03 0.03 0.03 0.02 0.01 0.01 0.03 0.04 0.04 0.06 0.08 0.09 0.09 0.09 0.09 0.07 0.03 0.01 0.00 0.00 0.00 0.03 0.13 0.18 0.17 0.09 0.07 0.09 0.11 0.14 0.16 0.23
0.22 0.21 0.17 0.15 0.15 0.13 0.12 0.10 0.08 0.06 0.05 0.06 0.05 0.03 0.03 0.02 0.02 0.04 0.05 0.06 0.08 0.08 0.06 0.07 0.08 0.09 0.09 0.06 0.00 0.00 0.00 0.01 0.04 0.11 0.11 0.12 0.13 0.15 0.25 0.23 0.21 0.27 0.40
0.14 0.13 0.13 0.13 0.13 0.13 0.13 0.12 0.10 0.09 0.11 0.12 0.08 0.05 0.05 0.05 0.05 0.06 0.05 0.06 0.08 0.06 0.06 0.08 0.08 0.09 0.09 0.05 0.02 0.02 0.04 0.05 0.08 0.10 0.14 0.22 0.28 0.31 0.38 0.42 0.46 0.48 0.48
0.13 0.12 0.13 0.12 0.10 0.09 0.09 0.10 0.10 0.12 0.15 0.14 0.09 0.05 0.04 0.06 0.07 0.09 0.06 0.04 0.05 0.01 0.02 0.04 0.04 0.05 0.05 0.03 0.02 0.02 0.02 0.03 0.04 0.07 0.17 0.33 0.39 0.45 0.48 0.51 0.55 0.57 0.51
0.09 0.09 0.09 0.06 0.05 0.06 0.06 0.07 0.09 0.09 0.10 0.11 0.07 0.04 0.03 0.05 0.06 0.09 0.10 0.04 0.01 0.00 0.00 0.00 0.01 0.02 0.02 0.02 0.02 0.02 0.02 0.04 0.07 0.13 0.27 0.34 0.37 0.42 0.42 0.42 0.45 0.50 0.50

GEFSMW_prec_meanprecacc_072.txt.gz
Total_Precipitation_Accumulation
0.20 0.34 0.50 0.67 0.74 0.78 0.78 0.76 0.72 0.78 0.88 1.05 1.18 1.20 1.27 1.27 1.26 1.33 1.44 1.63 1.77 1.84 1.86 1.88 1.79 1.65 1.53 1.43 1.31 1.14 1.00 0.89 0.80 0.74 0.61 0.47 0.39 0.37 0.35 0.34 0.36 0.37 0.36
0.31 0.51 0.69 0.99 1.08 1.02 1.02 1.06 1.09 1.22 1.39 1.64 1.86 2.03 2.18 2.27 2.28 2.29 2.40 2.52 2.64 2.72 2.72 2.64 2.52 2.35 2.05 1.65 1.34 1.17 1.06 0.95 0.88 0.84 0.77 0.56 0.39 0.29 0.24 0.26 0.28 0.31 0.33
0.67 0.82 0.95 1.09 1.26 1.31 1.35 1.42 1.56 1.85 2.20 2.50 2.80 3.03 3.27 3.37 3.27 3.10 3.10 3.19 3.23 3.26 3.30 3.21 2.92 2.48 1.99 1.58 1.35 1.27 1.16 1.02 0.92 0.84 0.81 0.71 0.57 0.38 0.25 0.21 0.20 0.21 0.21
0.74 0.89 1.04 1.24 1.34 1.44 1.56 1.65 1.86 2.25 2.63 2.99 3.41 3.74 3.91 4.06 4.16 4.02 3.84 3.63 3.42 3.32 3.18 2.96 2.51 2.07 1.71 1.47 1.37 1.23 1.04 0.93 0.79 0.69 0.62 0.57 0.51 0.44 0.33 0.23 0.17 0.14 0.13
0.52 0.69 0.85 1.12 1.34 1.44 1.46 1.54 1.87 2.36 2.99 3.60 4.01 4.27 4.46 4.54 4.47 4.20 3.89 3.54 3.17 2.76 2.45 2.15 1.84 1.65 1.44 1.21 1.03 0.89 0.74 0.63 0.53 0.46 0.42 0.38 0.33 0.30 0.28 0.24 0.18 0.17 0.15
0.34 0.42 0.56 0.81 1.08 1.18 1.37 1.58 1.90 2.52 3.19 3.67 4.05 4.31 4.47 4.37 4.16 3.81 3.33 3.01 2.67 2.24 1.87 1.64 1.41 1.21 1.01 0.81 0.63 0.51 0.44 0.40 0.37 0.34 0.31 0.27 0.26 0.24 0.26 0.27 0.22 0.19 0.18
0.30 0.36 0.45 0.62 0.87 1.01 1.31 1.65 2.03 2.53 2.94 3.37 3.69 3.79 3.88 3.85 3.73 3.51 3.17 2.84 2.40 1.96 1.58 1.31 1.11 0.88 0.67 0.52 0.41 0.33 0.27 0.23 0.22 0.21 0.20 0.19 0.20 0.20 0.20 0.21 0.19 0.18 0.17
0.35 0.43 0.57 0.71 0.85 0.94 1.11 1.45 1.80 2.22 2.44 2.62 2.85 2.95 3.01 3.04 2.93 2.74 2.48 2.17 1.85 1.57 1.25 0.95 0.70 0.51 0.38 0.31 0.26 0.22 0.20 0.17 0.15 0.14 0.14 0.13 0.12 0.12 0.12 0.14 0.16 0.19 0.19
0.34 0.45 0.57 0.68 0.76 0.81 0.95 1.13 1.33 1.59 1.85 2.04 2.12 2.13 2.13 2.05 1.98 1.82 1.61 1.43 1.26 1.04 0.78 0.57 0.41 0.32 0.26 0.20 0.17 0.15 0.13 0.11 0.11 0.11 0.11 0.11 0.11 0.10 0.10 0.11 0.14 0.19 0.23
0.37 0.45 0.50 0.52 0.56 0.60 0.72 0.85 0.99 1.12 1.28 1.39 1.41 1.37 1.31 1.27 1.18 1.09 1.00 0.83 0.67 0.54 0.44 0.36 0.29 0.24 0.19 0.16 0.14 0.13 0.11 0.10 0.10 0.10 0.11 0.13 0.13 0.14 0.15 0.16 0.16 0.18 0.21
0.42 0.43 0.44 0.44 0.41 0.42 0.51 0.59 0.67 0.81 0.90 0.92 0.89 0.81 0.78 0.72 0.68 0.62 0.58 0.50 0.42 0.37 0.33 0.29 0.26 0.23 0.20 0.17 0.15 0.15 0.15 0.15 0.16 0.17 0.17 0.18 0.18 0.18 0.16 0.16 0.15 0.14 0.17
0.42 0.39 0.38 0.35 0.32 0.33 0.37 0.41 0.46 0.52 0.55 0.52 0.48 0.46 0.46 0.45 0.44 0.42 0.39 0.36 0.35 0.32 0.29 0.27 0.24 0.22 0.21 0.21 0.20 0.20 0.19 0.19 0.19 0.19 0.18 0.18 0.17 0.18 0.17 0.17 0.16 0.16 0.18
0.50 0.44 0.41 0.36 0.34 0.33 0.33 0.33 0.32 0.32 0.33 0.33 0.33 0.33 0.34 0.35 0.36 0.37 0.37 0.35 0.34 0.32 0.29 0.27 0.27 0.26 0.25 0.23 0.22 0.21 0.20 0.18 0.16 0.15 0.14 0.13 0.12 0.12 0.11 0.10 0.09 0.09 0.09
0.54 0.54 0.56 0.52 0.43 0.35 0.32 0.30 0.30 0.27 0.26 0.25 0.25 0.25 0.26 0.28 0.30 0.30 0.30 0.30 0.30 0.32 0.32 0.31 0.29 0.26 0.23 0.19 0.16 0.13 0.11 0.09 0.08 0.07 0.06 0.05 0.05 0.07 0.08 0.08 0.08 0.09 0.11
0.66 0.68 0.67 0.59 0.51 0.46 0.41 0.37 0.35 0.33 0.30 0.30 0.30 0.29 0.28 0.28 0.29 0.30 0.32 0.31 0.30 0.27 0.24 0.20 0.16 0.13 0.10 0.07 0.05 0.04 0.03 0.03 0.02 0.02 0.02 0.02 0.03 0.05 0.06 0.06 0.08 0.13 0.17
0.89 0.86 0.77 0.69 0.65 0.60 0.55 0.50 0.46 0.43 0.42 0.42 0.43 0.43 0.41 0.40 0.38 0.34 0.30 0.26 0.21 0.16 0.12 0.09 0.07 0.05 0.03 0.02 0.01 0.01 0.01 0.01 0.02 0.02 0.02 0.02 0.02 0.02 0.02 0.05 0.10 0.16 0.19
1.03 1.02 0.98 0.88 0.79 0.73 0.68 0.63 0.59 0.55 0.53 0.52 0.51 0.51 0.46 0.41 0.32 0.23 0.16 0.13 0.10 0.08 0.06 0.05 0.03 0.03 0.01 0.00 0.00 0.00 0.00 0.02 0.03 0.04 0.04 0.03 0.02 0.03 0.05 0.06 0.07 0.09 0.09
1.02 1.02 1.00 0.97 0.90 0.80 0.72 0.68 0.65 0.60 0.57 0.54 0.50 0.44 0.36 0.28 0.19 0.13 0.10 0.08 0.07 0.06 0.05 0.03 0.03 0.04 0.02 0.00 0.00 0.00 0.01 0.03 0.04 0.04 0.04 0.05 0.06 0.06 0.06 0.04 0.05 0.09 0.13
1.12 1.08 1.00 0.90 0.84 0.76 0.69 0.67 0.67 0.62 0.55 0.47 0.36 0.26 0.18 0.13 0.09 0.07 0.07 0.07 0.06 0.05 0.04 0.03 0.05 0.07 0.05 0.01 0.00 0.00 0.01 0.03 0.03 0.04 0.03 0.04 0.07 0.07 0.07 0.06 0.10 0.16 0.20
0.94 0.86 0.76 0.65 0.60 0.59 0.56 0.51 0.49 0.43 0.34 0.24 0.15 0.11 0.08 0.06 0.05 0.05 0.05 0.05 0.05 0.05 0.04 0.04 0.05 0.07 0.08 0.02 0.00 0.00 0.01 0.02 0.03 0.05 0.08 0.06 0.06 0.05 0.05 0.05 0.12 0.21 0.23
0.64 0.58 0.54 0.50 0.47 0.41 0.35 0.30 0.25 0.21 0.15 0.10 0.07 0.06 0.04 0.03 0.03 0.03 0.04 0.04 0.05 0.06 0.06 0.07 0.07 0.08 0.04 0.01 0.00 0.00 0.00 0.01 0.02 0.08 0.15 0.16 0.08 0.05 0.05 0.07 0.12 0.19 0.17
0.38 0.35 0.33 0.30 0.27 0.23 0.19 0.17 0.14 0.09 0.06 0.05 0.05 0.04 0.03 0.01 0.02 0.04 0.05 0.05 0.06 0.09 0.09 0.10 0.10 0.09 0.07 0.03 0.01 0.00 0.00 0.00 0.04 0.13 0.18 0.17 0.09 0.07 0.10 0.11 0.15 0.17 0.23
0.24 0.24 0.20 0.17 0.17 0.16 0.15 0.13 0.10 0.07 0.06 0.07 0.06 0.04 0.03 0.03 0.03 0.04 0.06 0.07 0.08 0.08 0.06 0.08 0.09 0.09 0.09 0.06 0.00 0.00 0.00 0.01 0.04 0.11 0.11 0.12 0.13 0.15 0.25 0.24 0.21 0.27 0.41
0.18 0.17 0.15 0.16 0.16 0.15 0.15 0.14 0.11 0.10 0.12 0.13 0.09 0.06 0.06 0.06 0.06 0.06 0.05 0.06 0.08 0.06 0.06 0.08 0.08 0.09 0.09 0.05 0.02 0.02 0.04 0.05 0.08 0.10 0.14 0.22 0.28 0.31 0.38 0.42 0.47 0.49 0.49
0.15 0.14 0.16 0.16 0.12 0.11 0.11 0.11 0.11 0.13 0.16 0.15 0.10 0.06 0.05 0.06 0.08 0.09 0.06 0.04 0.05 0.01 0.02 0.04 0.04 0.05 0.05 0.03 0.02 0.02 0.02 0.03 0.05 0.07 0.18 0.33 0.40 0.46 0.49 0.52 0.56 0.58 0.52
0.11 0.12 0.12 0.09 0.08 0.08 0.08 0.08 0.09 0.10 0.13 0.14 0.09 0.05 0.04 0.05 0.06 0.09 0.10 0.04 0.01 0.00 0.00 0.00 0.01 0.02 0.02 0.02 0.02 0.02 0.02 0.04 0.07 0.13 0.27 0.34 0.38 0.42 0.43 0.43 0.46 0.51 0.50

GEFSMW_prec_meanprecacc_078.txt.gz
Total_Precipitation_Accumulation
0.22 0.37 0.56 0.72 0.82 0.88 0.92 0.95 0.95 1.04 1.17 1.42 1.63 1.65 1.68 1.82 1.87 1.88 1.92 2.02 2.11 2.21 2.22 2.12 2.00 1.85 1.72 1.59 1.46 1.29 1.13 1.03 0.95 0.88 0.74 0.57 0.46 0.45 0.44 0.43 0.44 0.46 0.44
0.35 0.60 0.80 1.08 1.16 1.13 1.14 1.20 1.26 1.44 1.63 1.91 2.21 2.51 2.60 2.70 2.72 2.73 2.83 2.87 2.96 3.05 3.07 2.92 2.74 2.56 2.24 1.82 1.50 1.32 1.22 1.09 1.04 1.00 0.94 0.71 0.53 0.41 0.32 0.34 0.36 0.39 0.40
0.71 0.92 1.08 1.16 1.34 1.42 1.48 1.54 1.71 2.05 2.43 2.78 3.11 3.44 3.67 3.71 3.60 3.39 3.38 3.46 3.50 3.57 3.63 3.50 3.17 2.71 2.18 1.74 1.52 1.42 1.31 1.18 1.08 0.99 0.98 0.88 0.75 0.54 0.36 0.30 0.27 0.28 0.27
0.76 0.92 1.11 1.31 1.41 1.53 1.68 1.76 1.99 2.44 2.85 3.23 3.72 4.13 4.31 4.45 4.52 4.33 4.06 3.84 3.61 3.54 3.44 3.22 2.75 2.29 1.91 1.64 1.51 1.38 1.19 1.08 0.92 0.82 0.73 0.70 0.67 0.60 0.44 0.32 0.24 0.21 0.17
0.53 0.71 0.88 1.19 1.44 1.51 1.53 1.62 1.97 2.50 3.17 3.79 4.24 4.61 4.83 4.89 4.80 4.46 4.08 3.69 3.33 2.94 2.64 2.34 2.04 1.83 1.61 1.37 1.17 1.02 0.86 0.74 0.62 0.56 0.51 0.48 0.46 0.44 0.40 0.33 0.26 0.22 0.20
0.36 0.44 0.59 0.85 1.16 1.24 1.41 1.63 1.96 2.61 3.31 3.82 4.25 4.54 4.74 4.68 4.39 3.97 3.47 3.13 2.78 2.39 2.05 1.83 1.59 1.40 1.18 0.95 0.76 0.61 0.52 0.47 0.45 0.42 0.39 0.36 0.34 0.32 0.33 0.32 0.26 0.22 0.21
0.32 0.39 0.47 0.64 0.90 1.08 1.36 1.69 2.08 2.59 3.04 3.50 3.84 4.01 4.13 4.08 3.96 3.69 3.31 2.98 2.55 2.11 1.73 1.45 1.24 1.02 0.79 0.62 0.51 0.41 0.33 0.29 0.26 0.25 0.25 0.24 0.24 0.23 0.25 0.25 0.22 0.20 0.19
0.38 0.46 0.60 0.74 0.88 1.01 1.20 1.50 1.85 2.27 2.51 2.71 2.98 3.13 3.23 3.22 3.07 2.88 2.61 2.30 1.97 1.70 1.40 1.08 0.80 0.59 0.46 0.39 0.33 0.29 0.26 0.21 0.19 0.18 0.17 0.16 0.15 0.13 0.14 0.17 0.18 0.21 0.21
0.37 0.48 0.61 0.71 0.80 0.88 1.04 1.20 1.38 1.64 1.90 2.10 2.21 2.27 2.29 2.19 2.08 1.91 1.70 1.53 1.35 1.13 0.89 0.68 0.53 0.42 0.33 0.26 0.23 0.21 0.18 0.15 0.14 0.13 0.13 0.13 0.12 0.12 0.12 0.13 0.16 0.21 0.26
0.40 0.48 0.54 0.57 0.61 0.65 0.78 0.92 1.03 1.17 1.35 1.47 1.50 1.45 1.41 1.36 1.26 1.14 1.04 0.89 0.75 0.62 0.52 0.45 0.38 0.33 0.28 0.24 0.20 0.17 0.15 0.13 0.13 0.12 0.12 0.13 0.14 0.15 0.16 0.17 0.18 0.19 0.23
0.45 0.46 0.47 0.48 0.45 0.46 0.55 0.64 0.71 0.85 0.96 0.98 0.95 0.87 0.82 0.77 0.72 0.66 0.62 0.53 0.46 0.40 0.36 0.33 0.30 0.27 0.24 0.22 0.20 0.19 0.17 0.17 0.18 0.18 0.18 0.19 0.19 0.18 0.17 0.16 0.16 0.15 0.18
0.47 0.43 0.41 0.39 0.37 0.39 0.43 0.46 0.51 0.56 0.59 0.57 0.52 0.50 0.49 0.48 0.47 0.45 0.42 0.39 0.37 0.34 0.32 0.29 0.27 0.25 0.24 0.23 0.22 0.21 0.21 0.20 0.21 0.20 0.19 0.18 0.17 0.18 0.18 0.17 0.17 0.17 0.19
0.54 0.48 0.46 0.41 0.40 0.42 0.40 0.36 0.35 0.35 0.36 0.36 0.35 0.35 0.37 0.38 0.39 0.41 0.41 0.39 0.37 0.35 0.32 0.29 0.28 0.27 0.26 0.24 0.22 0.21 0.20 0.18 0.17 0.16 0.15 0.13 0.12 0.12 0.11 0.11 0.10 0.09 0.10
0.56 0.56 0.58 0.55 0.48 0.43 0.41 0.37 0.34 0.30 0.28 0.28 0.27 0.27 0.28 0.30 0.32 0.33 0.32 0.32 0.33 0.34 0.34 0.32 0.30 0.27 0.23 0.20 0.16 0.14 0.12 0.10 0.08 0.07 0.06 0.05 0.05 0.07 0.08 0.08 0.08 0.09 0.11
0.69 0.70 0.69 0.62 0.54 0.51 0.48 0.43 0.40 0.36 0.33 0.32 0.32 0.31 0.30 0.30 0.32 0.33 0.33 0.33 0.31 0.28 0.25 0.21 0.17 0.13 0.10 0.08 0.06 0.04 0.04 0.03 0.02 0.02 0.02 0.02 0.03 0.05 0.06 0.06 0.08 0.13 0.17
0.92 0.89 0.82 0.74 0.70 0.67 0.63 0.57 0.51 0.48 0.46 0.45 0.45 0.45 0.43 0.42 0.40 0.36 0.31 0.27 0.22 0.16 0.12 0.09 0.07 0.05 0.03 0.02 0.02 0.01 0.01 0.02 0.02 0.02 0.03 0.02 0.03 0.02 0.02 0.05 0.10 0.16 0.19
1.06 1.05 1.02 0.94 0.86 0.81 0.77 0.73 0.66 0.60 0.57 0.56 0.55 0.54 0.49 0.43 0.34 0.25 0.18 0.14 0.11 0.09 0.07 0.05 0.03 0.03 0.01 0.00 0.00 0.00 0.01 0.02 0.03 0.04 0.05 0.03 0.02 0.03 0.05 0.06 0.07 0.09 0.10
1.06 1.05 1.04 1.02 0.98 0.89 0.80 0.76 0.70 0.64 0.60 0.58 0.53 0.48 0.39 0.30 0.22 0.15 0.12 0.10 0.09 0.07 0.05 0.04 0.04 0.04 0.02 0.00 0.00 0.00 0.01 0.03 0.04 0.04 0.05 0.05 0.06 0.06 0.06 0.05 0.06 0.11 0.14
1.18 1.13 1.07 0.98 0.92 0.85 0.77 0.73 0.71 0.65 0.58 0.51 0.40 0.30 0.22 0.16 0.12 0.10 0.10 0.09 0.08 0.06 0.05 0.04 0.05 0.07 0.06 0.01 0.00 0.00 0.01 0.03 0.04 0.04 0.03 0.04 0.07 0.07 0.07 0.07 0.12 0.18 0.22
1.00 0.93 0.83 0.73 0.67 0.66 0.63 0.58 0.54 0.47 0.38 0.29 0.21 0.16 0.14 0.11 0.09 0.08 0.08 0.07 0.07 0.06 0.05 0.04 0.05 0.07 0.08 0.02 0.00 0.00 0.01 0.03 0.04 0.06 0.08 0.06 0.06 0.05 0.05 0.06 0.15 0.23 0.25
0.72 0.66 0.61 0.58 0.54 0.49 0.43 0.37 0.31 0.27 0.20 0.16 0.14 0.12 0.10 0.08 0.07 0.07 0.06 0.06 0.06 0.08 0.08 0.08 0.08 0.08 0.04 0.01 0.00 0.00 0.01 0.02 0.04 0.09 0.16 0.16 0.08 0.05 0.05 0.07 0.13 0.19 0.17
0.46 0.42 0.41 0.38 0.34 0.30 0.26 0.24 0.20 0.15 0.11 0.11 0.12 0.11 0.08 0.04 0.05 0.08 0.08 0.07 0.09 0.11 0.11 0.12 0.11 0.09 0.07 0.03 0.01 0.00 0.00 0.01 0.05 0.14 0.18 0.17 0.09 0.07 0.10 0.11 0.15 0.17 0.24
0.30 0.30 0.26 0.23 0.23 0.22 0.21 0.19 0.15 0.12 0.10 0.11 0.12 0.10 0.07 0.06 0.05 0.07 0.08 0.09 0.10 0.09 0.08 0.09 0.10 0.09 0.10 0.06 0.00 0.00 0.00 0.01 0.05 0.12 0.11 0.12 0.13 0.15 0.26 0.24 0.21 0.28 0.42
0.23 0.23 0.21 0.20 0.20 0.19 0.19 0.18 0.14 0.14 0.16 0.18 0.14 0.11 0.10 0.08 0.07 0.08 0.07 0.07 0.09 0.07 0.07 0.09 0.09 0.10 0.11 0.06 0.02 0.02 0.04 0.05 0.08 0.10 0.14 0.22 0.28 0.32 0.39 0.43 0.48 0.50 0.50
0.21 0.20 0.22 0.20 0.16 0.15 0.15 0.13 0.14 0.16 0.21 0.21 0.15 0.11 0.09 0.09 0.10 0.10 0.06 0.04 0.05 0.02 0.03 0.05 0.05 0.06 0.06 0.03 0.02 0.02 0.02 0.03 0.05 0.07 0.19 0.35 0.41 0.47 0.50 0.53 0.57 0.59 0.52
0.16 0.19 0.19 0.15 0.13 0.12 0.12 0.11 0.12 0.14 0.18 0.20 0.14 0.08 0.06 0.07 0.07 0.10 0.11 0.04 0.01 0.00 0.00 0.00 0.01 0.02 0.02 0.02 0.02 0.02 0.02 0.04 0.07 0.13 0.28 0.35 0.39 0.43 0.43 0.43 0.47 0.52 0.51

GEFSMW_prec_meanprecacc_084.txt.gz
Total_Precipitation_Accumulation
0.31 0.45 0.64 0.85 1.07 1.16 1.19 1.23 1.24 1.37 1.56 1.83 2.06 2.19 2.24 2.41 2.50 2.54 2.66 2.65 2.58 2.64 2.62 2.51 2.34 2.15 2.01 1.83 1.67 1.46 1.27 1.13 1.05 0.99 0.84 0.66 0.55 0.57 0.55 0.54 0.55 0.55 0.52
0.47 0.74 0.95 1.28 1.42 1.44 1.41 1.47 1.51 1.66 1.88 2.20 2.57 2.95 3.06 3.18 3.22 3.21 3.37 3.47 3.44 3.49 3.53 3.39 3.14 2.90 2.54 2.10 1.74 1.52 1.37 1.21 1.15 1.09 1.03 0.80 0.61 0.50 0.40 0.44 0.48 0.50 0.50
0.79 1.00 1.18 1.32 1.49 1.59 1.64 1.68 1.89 2.22 2.61 3.01 3.41 3.77 4.03 4.07 4.02 3.78 3.74 3.84 3.89 3.91 3.98 3.90 3.56 3.07 2.51 2.02 1.76 1.64 1.49 1.35 1.23 1.11 1.08 0.96 0.82 0.61 0.42 0.37 0.35 0.36 0.36
0.81 0.96 1.15 1.36 1.48 1.61 1.76 1.86 2.12 2.57 3.00 3.42 3.95 4.38 4.61 4.79 4.89 4.68 4.37 4.14 3.97 3.86 3.73 3.53 3.09 2.61 2.20 1.90 1.75 1.61 1.40 1.30 1.15 1.04 0.90 0.81 0.75 0.67 0.51 0.37 0.30 0.26 0.22
0.57 0.75 0.91 1.23 1.48 1.56 1.59 1.69 2.07 2.62 3.30 3.95 4.41 4.82 5.09 5.16 5.11 4.75 4.38 3.98 3.62 3.20 2.85 2.56 2.28 2.09 1.86 1.60 1.40 1.24 1.07 0.92 0.80 0.73 0.68 0.63 0.59 0.54 0.48 0.39 0.31 0.27 0.24
0.41 0.50 0.64 0.89 1.21 1.30 1.46 1.69 2.02 2.68 3.41 3.95 4.39 4.71 4.94 4.89 4.60 4.18 3.69 3.40 3.06 2.62 2.23 2.00 1.77 1.60 1.37 1.13 0.96 0.85 0.74 0.64 0.59 0.55 0.50 0.48 0.46 0.43 0.42 0.38 0.31 0.27 0.24
0.36 0.42 0.50 0.68 0.93 1.12 1.41 1.77 2.16 2.66 3.11 3.59 3.96 4.12 4.25 4.24 4.14 3.88 3.49 3.16 2.78 2.36 1.94 1.60 1.40 1.18 0.97 0.81 0.69 0.60 0.52 0.46 0.39 0.35 0.33 0.31 0.31 0.30 0.31 0.30 0.27 0.24 0.22
0.45 0.53 0.64 0.78 0.91 1.03 1.23 1.57 1.92 2.33 2.57 2.78 3.07 3.23 3.36 3.36 3.22 3.04 2.78 2.43 2.08 1.82 1.52 1.16 0.88 0.68 0.54 0.47 0.44 0.43 0.40 0.34 0.30 0.26 0.24 0.21 0.18 0.17 0.17 0.19 0.21 0.24 0.25
0.41 0.53 0.65 0.75 0.82 0.90 1.07 1.25 1.42 1.68 1.95 2.16 2.29 2.37 2.41 2.31 2.20 2.03 1.81 1.63 1.43 1.20 0.94 0.73 0.59 0.48 0.40 0.33 0.29 0.29 0.27 0.24 0.23 0.21 0.19 0.17 0.16 0.14 0.14 0.14 0.17 0.22 0.27
0.43 0.51 0.57 0.63 0.66 0.69 0.83 0.96 1.09 1.22 1.40 1.52 1.55 1.50 1.49 1.47 1.34 1.21 1.11 0.96 0.80 0.67 0.56 0.48 0.41 0.37 0.33 0.29 0.26 0.23 0.20 0.18 0.17 0.15 0.15 0.15 0.15 0.15 0.16 0.17 0.18 0.19 0.23
0.50 0.49 0.50 0.51 0.49 0.50 0.59 0.69 0.75 0.89 1.00 1.04 1.03 0.95 0.89 0.84 0.78 0.71 0.68 0.58 0.49 0.44 0.39 0.35 0.32 0.29 0.26 0.23 0.22 0.21 0.19 0.19 0.20 0.19 0.19 0.20 0.19 0.19 0.17 0.17 0.16 0.16 0.18
0.54 0.47 0.44 0.40 0.39 0.42 0.46 0.51 0.57 0.61 0.64 0.61 0.57 0.56 0.53 0.52 0.51 0.48 0.45 0.43 0.40 0.36 0.33 0.30 0.28 0.26 0.24 0.23 0.23 0.22 0.21 0.21 0.21 0.20 0.19 0.19 0.17 0.19 0.18 0.18 0.17 0.17 0.19
0.56 0.50 0.47 0.42 0.42 0.44 0.43 0.40 0.41 0.43 0.43 0.40 0.39 0.39 0.40 0.41 0.42 0.43 0.43 0.41 0.38 0.36 0.33 0.30 0.29 0.27 0.26 0.24 0.23 0.22 0.20 0.18 0.17 0.16 0.15 0.13 0.12 0.12 0.12 0.11 0.10 0.10 0.10
0.58 0.58 0.60 0.57 0.50 0.46 0.45 0.41 0.39 0.36 0.36 0.33 0.31 0.30 0.30 0.32 0.34 0.34 0.34 0.33 0.34 0.35 0.35 0.33 0.30 0.27 0.24 0.20 0.16 0.14 0.12 0.10 0.08 0.07 0.06 0.05 0.05 0.07 0.08 0.08 0.08 0.09 0.11
0.70 0.71 0.71 0.64 0.57 0.54 0.51 0.47 0.46 0.43 0.39 0.37 0.38 0.36 0.33 0.32 0.33 0.33 0.34 0.33 0.32 0.29 0.25 0.21 0.17 0.13 0.10 0.08 0.06 0.04 0.04 0.03 0.02 0.02 0.02 0.02 0.03 0.05 0.06 0.06 0.08 0.13 0.17
0.93 0.90 0.83 0.76 0.71 0.69 0.64 0.60 0.56 0.53 0.51 0.49 0.50 0.50 0.47 0.45 0.42 0.37 0.32 0.27 0.22 0.17 0.12 0.09 0.07 0.05 0.03 0.02 0.02 0.01 0.01 0.02 0.02 0.02 0.03 0.02 0.03 0.02 0.02 0.05 0.10 0.16 0.19
1.07 1.06 1.03 0.95 0.88 0.83 0.80 0.76 0.69 0.64 0.62 0.60 0.58 0.57 0.53 0.46 0.37 0.27 0.19 0.15 0.12 0.09 0.07 0.05 0.03 0.03 0.02 0.00 0.00 0.00 0.01 0.02 0.04 0.04 0.05 0.03 0.02 0.03 0.05 0.06 0.07 0.09 0.10
1.07 1.06 1.05 1.04 1.00 0.91 0.83 0.79 0.74 0.67 0.63 0.60 0.56 0.51 0.42 0.33 0.24 0.17 0.13 0.11 0.09 0.08 0.06 0.04 0.04 0.04 0.02 0.00 0.00 0.00 0.01 0.03 0.04 0.04 0.05 0.05 0.06 0.06 0.06 0.05 0.06 0.11 0.14
1.19 1.15 1.08 1.00 0.95 0.89 0.81 0.77 0.75 0.69 0.61 0.53 0.42 0.32 0.25 0.18 0.14 0.12 0.11 0.10 0.09 0.07 0.05 0.04 0.05 0.07 0.06 0.01 0.00 0.00 0.01 0.03 0.04 0.04 0.03 0.04 0.07 0.07 0.07 0.07 0.12 0.18 0.22
1.02 0.95 0.86 0.76 0.71 0.69 0.67 0.62 0.57 0.50 0.41 0.30 0.22 0.18 0.16 0.14 0.12 0.10 0.10 0.09 0.08 0.07 0.05 0.05 0.05 0.07 0.08 0.02 0.00 0.00 0.01 0.03 0.04 0.06 0.08 0.06 0.06 0.05 0.05 0.06 0.15 0.23 0.25
0.74 0.68 0.64 0.62 0.59 0.52 0.45 0.39 0.34 0.30 0.22 0.17 0.15 0.13 0.12 0.10 0.10 0.10 0.09 0.09 0.08 0.08 0.08 0.08 0.08 0.08 0.04 0.01 0.00 0.00 0.01 0.02 0.04 0.09 0.16 0.16 0.08 0.05 0.05 0.07 0.13 0.19 0.17
0.47 0.44 0.44 0.42 0.38 0.33 0.28 0.26 0.23 0.18 0.14 0.13 0.14 0.14 0.11 0.07 0.08 0.10 0.10 0.09 0.10 0.11 0.11 0.12 0.11 0.09 0.07 0.03 0.01 0.00 0.00 0.01 0.05 0.14 0.18 0.17 0.09 0.07 0.10 0.11 0.15 0.17 0.24
0.32 0.33 0.28 0.26 0.26 0.25 0.23 0.21 0.18 0.15 0.13 0.14 0.15 0.13 0.10 0.09 0.08 0.09 0.10 0.10 0.11 0.10 0.09 0.10 0.10 0.10 0.10 0.07 0.01 0.00 0.00 0.01 0.05 0.12 0.11 0.12 0.13 0.15 0.26 0.24 0.21 0.28 0.42
0.24 0.25 0.23 0.22 0.23 0.22 0.21 0.19 0.16 0.15 0.18 0.20 0.17 0.13 0.12 0.10 0.09 0.10 0.08 0.08 0.10 0.07 0.08 0.10 0.10 0.10 0.11 0.06 0.02 0.02 0.04 0.05 0.08 0.10 0.14 0.22 0.28 0.32 0.39 0.43 0.48 0.50 0.50
0.22 0.22 0.24 0.22 0.17 0.16 0.16 0.15 0.16 0.18 0.23 0.23 0.18 0.13 0.11 0.10 0.11 0.11 0.07 0.05 0.05 0.02 0.03 0.06 0.05 0.06 0.06 0.03 0.02 0.02 0.02 0.03 0.05 0.07 0.19 0.35 0.41 0.47 0.50 0.53 0.57 0.59 0.52
0.18 0.20 0.20 0.17 0.14 0.13 0.14 0.13 0.14 0.15 0.19 0.22 0.16 0.10 0.07 0.08 0.08 0.10 0.11 0.04 0.01 0.00 0.00 0.01 0.01 0.02 0.02 0.02 0.02 0.02 0.02 0.04 0.07 0.13 0.28 0.35 0.39 0.43 0.43 0.43 0.47 0.52 0.51

GEFSMW_prec_meanprecacc_090.txt.gz
Total_Precipitation_Accumulation
0.31 0.47 0.68 0.92 1.15 1.24 1.27 1.33 1.35 1.54 1.75 2.03 2.28 2.41 2.49 2.69 2.78 2.83 2.94 2.93 2.87 2.92 2.90 2.78 2.61 2.41 2.25 2.09 1.95 1.78 1.60 1.41 1.29 1.17 0.96 0.75 0.63 0.65 0.63 0.61 0.61 0.60 0.57
0.48 0.76 1.03 1.38 1.51 1.52 1.50 1.56 1.62 1.81 2.06 2.42 2.80 3.19 3.33 3.46 3.48 3.49 3.66 3.77 3.76 3.81 3.86 3.69 3.45 3.24 2.87 2.42 2.05 1.83 1.71 1.53 1.42 1.31 1.19 0.89 0.68 0.56 0.45 0.49 0.53 0.54 0.55
0.80 1.02 1.22 1.35 1.53 1.64 1.71 1.77 2.01 2.36 2.76 3.19 3.66 4.04 4.28 4.30 4.23 4.00 3.99 4.11 4.12 4.14 4.24 4.17 3.85 3.39 2.84 2.34 2.08 1.94 1.80 1.65 1.52 1.35 1.27 1.09 0.88 0.65 0.46 0.40 0.38 0.40 0.38
0.82 0.98 1.18 1.39 1.50 1.64 1.81 1.92 2.20 2.70 3.13 3.56 4.14 4.59 4.80 4.97 5.05 4.84 4.54 4.33 4.17 4.07 3.97 3.79 3.36 2.90 2.51 2.22 2.06 1.90 1.69 1.61 1.46 1.33 1.12 0.97 0.85 0.73 0.55 0.41 0.32 0.28 0.24
0.58 0.75 0.92 1.24 1.50 1.59 1.62 1.72 2.10 2.67 3.38 4.03 4.53 4.97 5.26 5.32 5.25 4.91 4.56 4.17 3.80 3.40 3.08 2.78 2.49 2.30 2.09 1.86 1.67 1.52 1.36 1.20 1.08 1.01 0.93 0.82 0.73 0.63 0.54 0.45 0.36 0.31 0.27
0.42 0.51 0.64 0.90 1.22 1.32 1.47 1.71 2.05 2.72 3.45 4.02 4.47 4.80 5.09 5.04 4.73 4.30 3.84 3.55 3.19 2.76 2.40 2.23 1.99 1.79 1.57 1.34 1.18 1.06 0.97 0.90 0.86 0.81 0.73 0.67 0.62 0.57 0.54 0.48 0.38 0.32 0.29
0.37 0.43 0.51 0.69 0.95 1.14 1.42 1.79 2.18 2.69 3.15 3.64 4.01 4.20 4.34 4.35 4.23 3.96 3.57 3.24 2.87 2.49 2.09 1.77 1.58 1.37 1.16 1.02 0.91 0.82 0.73 0.68 0.65 0.63 0.58 0.52 0.49 0.46 0.45 0.42 0.36 0.33 0.30
0.45 0.53 0.65 0.78 0.92 1.05 1.25 1.60 1.94 2.35 2.60 2.81 3.11 3.29 3.42 3.43 3.30 3.12 2.84 2.50 2.17 1.92 1.65 1.28 1.00 0.83 0.69 0.62 0.59 0.58 0.57 0.53 0.50 0.47 0.44 0.39 0.36 0.34 0.33 0.33 0.33 0.36 0.34
0.42 0.54 0.66 0.75 0.83 0.91 1.09 1.26 1.44 1.70 1.98 2.19 2.31 2.41 2.45 2.36 2.26 2.08 1.86 1.67 1.49 1.26 1.03 0.82 0.68 0.58 0.51 0.44 0.40 0.40 0.37 0.37 0.39 0.39 0.36 0.33 0.30 0.28 0.27 0.26 0.27 0.31 0.35
0.44 0.52 0.58 0.63 0.67 0.70 0.84 0.98 1.11 1.25 1.43 1.56 1.59 1.54 1.53 1.51 1.38 1.25 1.14 0.99 0.84 0.72 0.63 0.55 0.50 0.45 0.41 0.37 0.35 0.32 0.28 0.27 0.29 0.30 0.30 0.28 0.26 0.26 0.25 0.24 0.23 0.23 0.26
0.51 0.50 0.51 0.52 0.50 0.51 0.61 0.71 0.78 0.92 1.03 1.08 1.08 0.99 0.94 0.87 0.81 0.74 0.71 0.62 0.53 0.49 0.46 0.42 0.39 0.36 0.33 0.30 0.28 0.26 0.24 0.24 0.27 0.28 0.29 0.30 0.28 0.25 0.21 0.20 0.19 0.19 0.20
0.54 0.48 0.44 0.41 0.40 0.43 0.47 0.53 0.60 0.65 0.67 0.66 0.62 0.60 0.57 0.55 0.54 0.51 0.48 0.48 0.45 0.42 0.39 0.36 0.33 0.31 0.30 0.29 0.28 0.26 0.24 0.24 0.25 0.25 0.24 0.23 0.22 0.21 0.20 0.19 0.18 0.18 0.20
0.56 0.51 0.47 0.43 0.42 0.45 0.44 0.42 0.44 0.46 0.48 0.46 0.45 0.43 0.44 0.45 0.46 0.46 0.45 0.45 0.44 0.41 0.38 0.34 0.33 0.31 0.29 0.27 0.26 0.25 0.23 0.21 0.19 0.18 0.17 0.15 0.13 0.13 0.12 0.11 0.10 0.10 0.10
0.58 0.58 0.61 0.57 0.51 0.47 0.46 0.42 0.41 0.39 0.40 0.39 0.38 0.35 0.33 0.35 0.38 0.38 0.37 0.36 0.37 0.39 0.39 0.37 0.34 0.30 0.26 0.21 0.18 0.15 0.13 0.11 0.09 0.08 0.06 0.05 0.05 0.07 0.09 0.08 0.08 0.09 0.11
0.70 0.71 0.72 0.65 0.58 0.55 0.52 0.49 0.48 0.46 0.44 0.43 0.44 0.41 0.36 0.35 0.37 0.38 0.39 0.36 0.34 0.31 0.27 0.23 0.19 0.15 0.11 0.09 0.06 0.05 0.04 0.03 0.02 0.02 0.02 0.02 0.03 0.05 0.06 0.06 0.09 0.13 0.17
0.93 0.90 0.83 0.76 0.72 0.70 0.66 0.62 0.58 0.56 0.55 0.54 0.54 0.54 0.52 0.50 0.46 0.41 0.37 0.30 0.25 0.19 0.14 0.10 0.08 0.06 0.04 0.03 0.02 0.01 0.01 0.02 0.02 0.02 0.03 0.02 0.03 0.02 0.02 0.05 0.10 0.16 0.19
1.08 1.06 1.03 0.96 0.89 0.84 0.81 0.78 0.72 0.67 0.65 0.64 0.62 0.60 0.56 0.50 0.41 0.30 0.24 0.19 0.15 0.12 0.09 0.06 0.04 0.04 0.02 0.01 0.00 0.00 0.01 0.02 0.04 0.04 0.05 0.03 0.02 0.03 0.05 0.06 0.07 0.09 0.10
1.07 1.07 1.05 1.05 1.00 0.92 0.84 0.81 0.77 0.70 0.67 0.65 0.60 0.54 0.44 0.35 0.27 0.21 0.18 0.14 0.12 0.10 0.07 0.05 0.05 0.05 0.02 0.00 0.00 0.00 0.01 0.03 0.04 0.04 0.05 0.05 0.06 0.06 0.06 0.05 0.06 0.11 0.14
1.20 1.16 1.09 1.01 0.97 0.91 0.83 0.80 0.78 0.73 0.64 0.57 0.46 0.37 0.28 0.21 0.15 0.14 0.14 0.13 0.11 0.08 0.07 0.06 0.06 0.07 0.06 0.01 0.00 0.00 0.01 0.03 0.04 0.04 0.03 0.04 0.07 0.07 0.07 0.07 0.12 0.18 0.22
1.03 0.96 0.87 0.78 0.74 0.73 0.69 0.64 0.60 0.55 0.46 0.34 0.25 0.21 0.19 0.17 0.14 0.12 0.12 0.11 0.10 0.09 0.07 0.06 0.06 0.08 0.08 0.02 0.00 0.00 0.01 0.03 0.04 0.06 0.08 0.06 0.06 0.05 0.05 0.06 0.15 0.23 0.25
0.75 0.70 0.66 0.66 0.63 0.55 0.47 0.42 0.37 0.33 0.27 0.21 0.18 0.16 0.14 0.11 0.12 0.12 0.11 0.10 0.10 0.11 0.10 0.09 0.09 0.09 0.05 0.02 0.00 0.00 0.01 0.02 0.04 0.09 0.16 0.16 0.08 0.05 0.05 0.07 0.13 0.19 0.17
0.50 0.47 0.47 0.48 0.44 0.36 0.31 0.30 0.27 0.21 0.17 0.17 0.17 0.16 0.13 0.09 0.09 0.12 0.12 0.11 0.12 0.14 0.14 0.14 0.12 0.10 0.07 0.03 0.01 0.00 0.00 0.01 0.05 0.14 0.18 0.17 0.09 0.07 0.10 0.11 0.15 0.17 0.24
0.35 0.36 0.32 0.30 0.30 0.29 0.27 0.25 0.22 0.18 0.17 0.19 0.19 0.17 0.13 0.11 0.10 0.11 0.12 0.12 0.13 0.12 0.10 0.11 0.12 0.11 0.10 0.07 0.01 0.00 0.00 0.01 0.05 0.12 0.11 0.12 0.13 0.15 0.26 0.24 0.21 0.28 0.42
0.27 0.28 0.26 0.25 0.26 0.24 0.24 0.24 0.20 0.20 0.24 0.25 0.21 0.16 0.14 0.12 0.10 0.11 0.09 0.09 0.11 0.08 0.08 0.10 0.10 0.11 0.11 0.06 0.02 0.02 0.04 0.05 0.08 0.10 0.14 0.22 0.28 0.32 0.39 0.43 0.48 0.50 0.50
0.25 0.25 0.26 0.24 0.20 0.18 0.18 0.18 0.20 0.23 0.29 0.27 0.20 0.15 0.12 0.11 0.12 0.11 0.07 0.05 0.06 0.02 0.04 0.06 0.06 0.06 0.06 0.03 0.02 0.02 0.02 0.03 0.05 0.07 0.19 0.35 0.41 0.47 0.50 0.53 0.57 0.59 0.52
0.20 0.23 0.24 0.19 0.16 0.15 0.15 0.15 0.17 0.18 0.22 0.24 0.18 0.11 0.08 0.08 0.08 0.11 0.11 0.05 0.01 0.01 0.01 0.01 0.01 0.02 0.03 0.02 0.02 0.02 0.02 0.04 0.07 0.13 0.28 0.35 0.39 0.43 0.43 0.43 0.47 0.52 0.51